�������l�o���
Date,Time,MP-1(��Sv/h),MP-2(��Sv/h),MP-3(��Sv/h),MP-4(��Sv/h),MP-5(��Sv/h),MP-6(��Sv/h),MP-7(��Sv/h),MP-8(��Sv/h),����,����(m/s),���J
2018/08/16,00:00,0.846,1.236,0.871,1.543,1.120,0.474,0.830,0.782,��,5.8,��
2018/08/16,00:10,0.845,1.239,0.869,1.545,1.122,0.474,0.829,0.786,��,5.8,��
2018/08/16,00:20,0.845,1.242,0.868,1.542,1.121,0.476,0.832,0.785,��,5.4,��
2018/08/16,00:30,0.843,1.240,0.869,1.546,1.120,0.476,0.830,0.783,��,5.0,��
2018/08/16,00:40,0.844,1.239,0.871,1.543,1.118,0.475,0.829,0.784,��,4.3,�L
2018/08/16,00:50,0.847,1.239,0.869,1.542,1.119,0.473,0.830,0.786,��,4.5,�L
2018/08/16,01:00,0.845,1.240,0.870,1.543,1.120,0.475,0.829,0.784,��,5.6,��
2018/08/16,01:10,0.843,1.241,0.869,1.543,1.121,0.473,0.831,0.784,��,6.0,��
2018/08/16,01:20,0.846,1.241,0.868,1.543,1.118,0.475,0.830,0.785,��,5.8,��
2018/08/16,01:30,0.845,1.238,0.869,1.543,1.119,0.474,0.829,0.785,��,6.0,��
2018/08/16,01:40,0.845,1.241,0.869,1.546,1.124,0.474,0.829,0.782,��,5.8,�L
2018/08/16,01:50,0.845,1.239,0.870,1.543,1.120,0.473,0.830,0.783,��,5.7,��
2018/08/16,02:00,0.844,1.239,0.870,1.542,1.121,0.473,0.833,0.784,��쐼,5.3,��
2018/08/16,02:10,0.845,1.239,0.871,1.544,1.119,0.475,0.832,0.785,��쐼,4.4,�L
2018/08/16,02:20,0.846,1.242,0.870,1.543,1.120,0.473,0.831,0.785,��,5.1,��
2018/08/16,02:30,0.846,1.239,0.869,1.544,1.121,0.475,0.831,0.786,��,4.9,��
2018/08/16,02:40,0.845,1.241,0.871,1.545,1.121,0.476,0.829,0.784,��,5.2,��
2018/08/16,02:50,0.847,1.241,0.869,1.542,1.121,0.475,0.831,0.784,��,5.2,��
2018/08/16,03:00,0.844,1.241,0.870,1.544,1.119,0.475,0.831,0.786,��,5.3,��
2018/08/16,03:10,0.844,1.241,0.869,1.541,1.119,0.474,0.831,0.784,��,5.8,��
2018/08/16,03:20,0.844,1.239,0.869,1.545,1.121,0.477,0.831,0.786,��,5.9,��
2018/08/16,03:30,0.844,1.240,0.870,1.542,1.122,0.475,0.831,0.783,��,5.5,��
2018/08/16,03:40,0.845,1.239,0.871,1.545,1.120,0.476,0.832,0.784,��,5.6,��
2018/08/16,03:50,0.846,1.239,0.869,1.546,1.121,0.474,0.830,0.785,��,6.7,��
2018/08/16,04:00,0.842,1.241,0.868,1.544,1.121,0.477,0.831,0.784,��,6.8,��
2018/08/16,04:10,0.846,1.239,0.869,1.543,1.122,0.475,0.830,0.785,��,6.9,��
2018/08/16,04:20,0.846,1.237,0.866,1.542,1.122,0.476,0.831,0.784,��,6.4,��
2018/08/16,04:30,0.844,1.238,0.869,1.543,1.119,0.475,0.830,0.785,��,5.2,��
2018/08/16,04:40,0.845,1.242,0.871,1.545,1.120,0.475,0.832,0.784,��,5.5,��
2018/08/16,04:50,0.845,1.240,0.869,1.545,1.120,0.475,0.829,0.785,��,5.1,��
2018/08/16,05:00,0.846,1.239,0.868,1.546,1.121,0.476,0.831,0.784,��,4.7,��
2018/08/16,05:10,0.845,1.240,0.870,1.545,1.119,0.476,0.830,0.784,��,4.2,��
2018/08/16,05:20,0.844,1.240,0.869,1.544,1.120,0.475,0.829,0.785,��,3.8,��
2018/08/16,05:30,0.845,1.240,0.871,1.543,1.121,0.475,0.830,0.786,��,4.2,��
2018/08/16,05:40,0.846,1.239,0.868,1.546,1.120,0.475,0.830,0.785,��,5.4,��
2018/08/16,05:50,0.845,1.242,0.870,1.545,1.124,0.474,0.830,0.786,��,5.9,��
2018/08/16,06:00,0.844,1.240,0.869,1.544,1.121,0.477,0.831,0.785,��,6.4,��
2018/08/16,06:10,0.844,1.243,0.872,1.546,1.120,0.475,0.829,0.786,��,5.8,��
2018/08/16,06:20,0.845,1.241,0.869,1.544,1.122,0.476,0.829,0.783,��,5.7,��
2018/08/16,06:30,0.844,1.239,0.871,1.547,1.123,0.475,0.831,0.785,��,5.0,��
2018/08/16,06:40,0.844,1.240,0.870,1.544,1.121,0.475,0.831,0.785,��,5.1,��
2018/08/16,06:50,0.842,1.239,0.870,1.544,1.122,0.475,0.832,0.785,��,4.9,��
2018/08/16,07:00,0.844,1.242,0.869,1.546,1.119,0.475,0.830,0.785,��,4.4,��
2018/08/16,07:10,0.845,1.244,0.872,1.547,1.121,0.475,0.830,0.784,��쓌,4.2,��
2018/08/16,07:20,0.842,1.243,0.869,1.543,1.121,0.476,0.830,0.785,��쓌,3.8,��
2018/08/16,07:30,0.846,1.241,0.871,1.546,1.122,0.476,0.831,0.785,��쓌,4.4,��
2018/08/16,07:40,0.844,1.241,0.871,1.546,1.121,0.474,0.830,0.783,��,4.3,��
2018/08/16,07:50,0.844,1.242,0.869,1.546,1.122,0.476,0.830,0.784,��쓌,4.7,��
2018/08/16,08:00,0.844,1.243,0.871,1.545,1.122,0.475,0.829,0.785,��쓌,5.2,��
2018/08/16,08:10,0.845,1.244,0.871,1.544,1.123,0.476,0.831,0.786,��쓌,5.3,��
2018/08/16,08:20,0.846,1.240,0.873,1.547,1.121,0.475,0.831,0.787,��쓌,5.5,��
2018/08/16,08:30,0.846,1.242,0.872,1.546,1.120,0.477,0.832,0.787,��쓌,6.1,��
2018/08/16,08:40,0.844,1.242,0.872,1.546,1.122,0.474,0.831,0.784,��쓌,7.5,��
2018/08/16,08:50,0.845,1.242,0.870,1.545,1.124,0.476,0.835,0.785,��,6.3,��
2018/08/16,09:00,0.845,1.244,0.872,1.546,1.120,0.475,0.832,0.785,��,5.6,��
2018/08/16,09:10,0.848,1.246,0.870,1.547,1.121,0.476,0.831,0.786,��,6.0,��
2018/08/16,09:20,0.846,1.241,0.870,1.547,1.123,0.476,0.830,0.784,��,5.2,��
2018/08/16,09:30,0.848,1.244,0.872,1.548,1.122,0.477,0.831,0.785,��,4.8,��
2018/08/16,09:40,0.846,1.244,0.871,1.546,1.125,0.476,0.830,0.784,��,6.1,��
2018/08/16,09:50,0.847,1.242,0.873,1.546,1.125,0.476,0.832,0.785,��,5.2,��
2018/08/16,10:00,0.848,1.245,0.872,1.544,1.122,0.475,0.833,0.786,��,5.3,��
2018/08/16,10:10,0.848,1.244,0.871,1.545,1.124,0.476,0.830,0.784,��,5.6,��
2018/08/16,10:20,0.847,1.244,0.873,1.544,1.124,0.476,0.832,0.786,��,5.6,��
2018/08/16,10:30,0.847,1.244,0.873,1.545,1.122,0.475,0.831,0.785,��,5.1,��
2018/08/16,10:40,0.849,1.242,0.872,1.546,1.122,0.476,0.832,0.787,��쐼,3.5,��
2018/08/16,10:50,0.847,1.244,0.872,1.546,1.125,0.477,0.834,0.786,�쐼,3.6,��
2018/08/16,11:00,0.847,1.244,0.872,1.551,1.125,0.479,0.835,0.786,��쐼,3.0,��
2018/08/16,11:10,0.849,1.246,0.874,1.549,1.124,0.478,0.833,0.786,��,4.0,��
2018/08/16,11:20,0.848,1.245,0.874,1.548,1.124,0.477,0.835,0.789,��,2.9,��
2018/08/16,11:30,0.850,1.248,0.875,1.551,1.126,0.478,0.833,0.787,��,2.5,��
2018/08/16,11:40,0.850,1.245,0.874,1.548,1.126,0.478,0.832,0.785,��,5.9,��
2018/08/16,11:50,0.849,1.244,0.875,1.548,1.123,0.476,0.831,0.787,��,6.3,��
2018/08/16,12:00,0.850,1.245,0.874,1.549,1.125,0.478,0.834,0.784,��,7.5,��
2018/08/16,12:10,0.851,1.248,0.873,1.547,1.125,0.477,0.833,0.785,��,9.3,��
2018/08/16,12:20,0.851,1.247,0.875,1.548,1.125,0.477,0.835,0.785,��,7.5,��
2018/08/16,12:30,0.851,1.249,0.875,1.549,1.126,0.479,0.834,0.784,��,9.2,��
2018/08/16,12:40,0.849,1.242,0.874,1.548,1.127,0.479,0.833,0.785,��,8.3,��
2018/08/16,12:50,0.851,1.246,0.873,1.549,1.125,0.478,0.832,0.786,��,9.0,��
2018/08/16,13:00,0.849,1.244,0.874,1.550,1.126,0.477,0.834,0.786,��,8.1,��
2018/08/16,13:10,0.850,1.242,0.873,1.548,1.127,0.479,0.834,0.786,��,8.9,��
2018/08/16,13:20,0.852,1.245,0.872,1.550,1.128,0.478,0.833,0.788,��,10.0,��
2018/08/16,13:30,0.853,1.247,0.873,1.554,1.127,0.479,0.832,0.786,��,10.5,��
2018/08/16,13:40,0.856,1.249,0.873,1.553,1.129,0.479,0.834,0.786,��,8.7,��
2018/08/16,13:50,0.852,1.249,0.874,1.553,1.131,0.479,0.832,0.786,��쐼,8.3,�L
2018/08/16,14:00,0.854,1.251,0.873,1.553,1.131,0.480,0.833,0.785,��,9.3,�L
2018/08/16,14:10,0.853,1.247,0.873,1.553,1.129,0.478,0.832,0.783,���k��,9.0,�L
2018/08/16,14:20,0.850,1.249,0.868,1.553,1.128,0.477,0.832,0.785,��,10.2,�L
2018/08/16,14:30,0.851,1.246,0.873,1.550,1.127,0.475,0.833,0.785,��,7.3,�L
2018/08/16,14:40,0.848,1.246,0.870,1.554,1.125,0.475,0.832,0.786,��,9.7,�L
2018/08/16,14:50,0.836,1.215,0.859,1.535,1.107,0.471,0.828,0.781,���쐼,5.6,�L
2018/08/16,15:00,0.826,1.200,0.852,1.518,1.095,0.473,0.824,0.778,��,4.5,�L
2018/08/16,15:10,0.826,1.197,0.853,1.516,1.095,0.471,0.823,0.779,���쐼,4.5,�L
2018/08/16,15:20,0.829,1.197,0.852,1.516,1.092,0.470,0.825,0.779,���쐼,5.7,�L
2018/08/16,15:30,0.824,1.198,0.854,1.515,1.093,0.470,0.822,0.779,���쐼,5.2,�L
2018/08/16,15:40,0.827,1.199,0.851,1.515,1.095,0.471,0.823,0.777,�쐼,5.3,�L
2018/08/16,15:50,0.826,1.198,0.854,1.518,1.096,0.470,0.824,0.778,��쐼,6.9,�L
2018/08/16,16:00,0.827,1.200,0.852,1.518,1.095,0.472,0.823,0.780,��,5.6,�L
2018/08/16,16:10,0.827,1.202,0.852,1.515,1.095,0.471,0.823,0.779,��쓌,4.3,�L
2018/08/16,16:20,0.825,1.195,0.851,1.517,1.092,0.470,0.823,0.779,�쓌,3.6,�L
2018/08/16,16:30,0.827,1.200,0.852,1.517,1.091,0.469,0.824,0.779,�쓌,2.6,��
2018/08/16,16:40,0.825,1.197,0.851,1.515,1.093,0.470,0.825,0.779,��쓌,3.5,��
2018/08/16,16:50,0.826,1.200,0.855,1.517,1.091,0.470,0.825,0.779,��쓌,6.7,��
2018/08/16,17:00,0.825,1.202,0.852,1.515,1.092,0.469,0.825,0.781,��쓌,4.0,��
2018/08/16,17:10,0.824,1.200,0.854,1.515,1.092,0.468,0.822,0.782,��쓌,4.0,��
2018/08/16,17:20,0.826,1.198,0.853,1.514,1.092,0.468,0.823,0.779,�쓌,4.1,��
2018/08/16,17:30,0.825,1.200,0.855,1.516,1.093,0.469,0.824,0.782,�쓌,3.8,��
2018/08/16,17:40,0.825,1.202,0.853,1.519,1.093,0.471,0.824,0.779,�쓌,3.9,��
2018/08/16,17:50,0.825,1.202,0.852,1.517,1.092,0.469,0.825,0.781,��,3.3,��
2018/08/16,18:00,0.826,1.202,0.853,1.517,1.093,0.469,0.823,0.781,��,2.8,�L
2018/08/16,18:10,0.826,1.200,0.854,1.517,1.094,0.469,0.825,0.781,��쐼,3.3,�L
2018/08/16,18:20,0.825,1.202,0.852,1.519,1.095,0.470,0.825,0.782,��쐼,4.4,��
2018/08/16,18:30,0.827,1.202,0.852,1.518,1.095,0.470,0.826,0.782,���쐼,7.7,��
2018/08/16,18:40,0.825,1.205,0.853,1.518,1.096,0.471,0.826,0.784,�쐼,5.9,��
2018/08/16,18:50,0.825,1.207,0.854,1.518,1.096,0.470,0.827,0.782,�쐼,2.5,��
2018/08/16,19:00,0.826,1.206,0.855,1.521,1.097,0.469,0.824,0.781,-,CALM,��
2018/08/16,19:10,0.826,1.206,0.855,1.517,1.097,0.470,0.825,0.781,��쐼,1.2,��
2018/08/16,19:20,0.827,1.204,0.855,1.522,1.096,0.469,0.824,0.782,�쐼,2.6,��
2018/08/16,19:30,0.825,1.209,0.855,1.518,1.094,0.473,0.825,0.782,���쐼,3.3,��
2018/08/16,19:40,0.828,1.208,0.853,1.518,1.096,0.470,0.827,0.782,���쐼,2.9,��
2018/08/16,19:50,0.827,1.206,0.856,1.521,1.096,0.473,0.826,0.781,��,4.9,��
2018/08/16,20:00,0.828,1.208,0.853,1.521,1.093,0.472,0.826,0.782,���쐼,4.2,��
2018/08/16,20:10,0.826,1.206,0.857,1.519,1.096,0.472,0.825,0.783,��,6.2,��
2018/08/16,20:20,0.827,1.210,0.857,1.521,1.095,0.471,0.826,0.780,��,6.4,��
2018/08/16,20:30,0.829,1.208,0.856,1.522,1.097,0.474,0.826,0.783,���k��,4.5,��
2018/08/16,20:40,0.829,1.210,0.856,1.520,1.097,0.472,0.827,0.783,��,7.7,��
2018/08/16,20:50,0.828,1.208,0.857,1.521,1.098,0.472,0.826,0.782,��,7.7,��
2018/08/16,21:00,0.829,1.211,0.859,1.524,1.100,0.472,0.827,0.784,���쐼,7.7,��
2018/08/16,21:10,0.827,1.210,0.856,1.525,1.098,0.473,0.827,0.782,��,8.6,��
2018/08/16,21:20,0.829,1.212,0.859,1.523,1.098,0.472,0.826,0.782,��,9.2,��
2018/08/16,21:30,0.828,1.209,0.856,1.524,1.098,0.471,0.827,0.784,��,6.1,��
2018/08/16,21:40,0.828,1.211,0.856,1.525,1.098,0.472,0.828,0.784,�k��,6.3,��
2018/08/16,21:50,0.825,1.212,0.855,1.524,1.099,0.470,0.827,0.784,�k��,6.3,��
2018/08/16,22:00,0.827,1.210,0.856,1.524,1.099,0.470,0.828,0.784,���k��,7.3,��
2018/08/16,22:10,0.828,1.209,0.858,1.525,1.098,0.472,0.826,0.783,���k��,8.0,��
2018/08/16,22:20,0.827,1.209,0.856,1.525,1.100,0.471,0.829,0.783,���k��,7.2,��
2018/08/16,22:30,0.828,1.210,0.857,1.526,1.102,0.472,0.826,0.782,���k��,5.2,��
2018/08/16,22:40,0.827,1.210,0.857,1.523,1.100,0.472,0.827,0.783,���k��,5.0,��
2018/08/16,22:50,0.827,1.210,0.857,1.524,1.098,0.470,0.827,0.782,���k��,7.0,��
2018/08/16,23:00,0.827,1.214,0.857,1.525,1.099,0.471,0.826,0.784,���k��,7.3,��
2018/08/16,23:10,0.828,1.211,0.857,1.523,1.099,0.471,0.827,0.783,���k��,7.4,��
2018/08/16,23:20,0.829,1.211,0.857,1.528,1.099,0.472,0.827,0.783,���k��,9.4,��
2018/08/16,23:30,0.831,1.212,0.857,1.528,1.101,0.471,0.827,0.784,��,8.1,��
2018/08/16,23:40,0.828,1.210,0.858,1.526,1.102,0.472,0.826,0.783,���k��,9.2,��
2018/08/16,23:50,0.831,1.212,0.857,1.525,1.098,0.470,0.826,0.783,���k��,9.4,��
